Weather in Narva

Russia / Krasnoyarsk Krai     55°24′37″N   93°38′48″E
temp.,
°C
wind,
m/s
gust,
m/s
humid.,
%
clouds,
%
prec.,
mm/h
press.,
hPa
HPBL,
m
22 october, fri
fri2201:00+2ssw3364100 0.0 101849
04:00+2sw336576 0.0 101844
07:00+2ssw3365100 0.0 101846
10:00+6ssw265574 0.0 1017141
13:00+11ssw383855 0.0 1015399
16:00+11sw31040100 0.0 1015287
19:00+6sw365288 0.0 101896
22:00+5wsw2257100 0.0 102015
23 october, sat
sat2301:00+3w51287100 0.0 1024838
04:00+1sw41096100 1.0 1027585
07:00+2sw41088100 1.4 1028985
10:00+3wsw5136615 0.0 10271232
13:00+5sw61161100 0.0 10261744
16:00+3sw6136891 0.1 10251409
19:00+2ssw6146685 0.1 1024977
22:00+3sw7155897 0.0 10221074
24 october, sun
sun2401:00+4sw71757100 0.0 10191251
04:00+2sw81977100 0.0 10181441
07:00+2sw9188358 0.1 10181242
10:00+3sw8179199 0.1 10191061
13:00+4sw81783100 0.2 10171299
16:00+3sw71694100 0.6 10181293
19:00+4sw71587100 0.9 10191156
22:00+3wsw71596100 0.3 10201135
25 october, mon
mon2501:00+3wsw61494100 0.7 10211168
04:00+4wsw6138653 0.4 10221291
07:00+2sw51487100 0.4 1023778
10:00+5sw6127999 0.0 10231209
13:00+7sw51172100 0.0 10211112
16:00+6sw61280100 0.1 10201014
19:00+6sw61578100 0.1 1019841
22:00+7sw71673100 0.0 1017944
26 october, tue
tue2601:00+7sw71570100 0.0 1017992
04:00+7wsw61574100 0.0 1017922
07:00+5wsw5148053 0.0 1019640
10:00+7sw4116990 0.0 1019715
13:00+11wsw485551 0.0 1017894
16:00+9ssw2465100 0.0 101593
19:00+6s2275100 0.0 101429
22:00+5ssw2376100 0.0 101255